Starlink 1265

operational
NORAD ID: 45406 Int'l Des: 2020-019 Owner: SPXS Country: US Constellation: starlink
LEOCIRCULAR

Starlink 1265について

説明を読み込み中...

リアルタイム位置

3D地球を読み込み中...

次回通過

高度履歴

Altitude vs Time

uPlot chart will show altitude changes over time

軌道要素

1 45406U 20019AY 26062.49600627 .00011163 00000-0 38822-3 0 9999
2 45406 53.1596 158.1144 0001186 88.2195 271.8941 15.30220682329020
Epoch: Mar 3, 2026 • Age: 31 hours

現在のステータス

高度 480.9 km
速度 7.63 km/s
衛星直下点 53.31°N, 24.24°W
打ち上げ日 Mar 18, 2020
運用期間 5.9 years
タイプ internet

技術仕様

分類 Payload
質量 260.00 kg
乾燥質量 248.00 kg
総質量 260.00 kg
長さ 0.20 m
直径 2.80 m
スパン 9.00 m
形状 Box + pan
製造者 SPXS
バスタイプ Starlink
フェーズステータス In Orbit
所有者/国 SPXS/US

大規模コンステレーション

Loading constellations...